When you browse on this site, cookies collect data to enhance your experience and personalize the content and advertising you see.
Visit our Privacy Policy to learn more. By continuing to use the site, you agree to this use of cookies and data.
  • In Italy
  • List of Countries
  • For 7 days
  • Water Temperature
  • Satellite Maps
  • Weather Map
  • Weather Widgets
  • user-avatar
    Login

    Hourly Weather Strikino

    Today, 16 November, Friday

    Time Temperature Precipitation Wind Pressure Humidity
    00:00 -3°C° 0 mm 2 mps 765 mmHg 41%
    01:00 -4°C° 0 mm 2 mps 765 mmHg 39%
    02:00 -4°C° 0 mm 2 mps 766 mmHg 39%
    03:00 -4°C° 0 mm 2 mps 766 mmHg 38%
    04:00 -4°C° 0 mm 2 mps 766 mmHg 36%
    05:00 -4°C° 0 mm 2 mps 766 mmHg 34%
    06:00 -4°C° 0 mm 2 mps 766 mmHg 33%
    07:00 -4°C° 0 mm 2 mps 767 mmHg 32%
    08:00 -4°C° 0 mm 2 mps 767 mmHg 30%
    09:00 -3°C° 0 mm 2 mps 767 mmHg 28%
    10:00 -2°C° 0 mm 2 mps 767 mmHg 25%
    11:00 -1°C° 0 mm 2 mps 767 mmHg 23%
    12:00 -1°C° 0 mm 2 mps 767 mmHg 24%
    13:00 -1°C° 0 mm 2 mps 767 mmHg 25%
    14:00 +1°C° 0 mm 1 mps 768 mmHg 30%
    15:00 +1°C° 0 mm 1 mps 768 mmHg 31%
    16:00 -2°C° 0 mm 2 mps 768 mmHg 31%
    17:00 -3°C° 0 mm 2 mps 768 mmHg 32%
    18:00 -3°C° 0 mm 2 mps 768 mmHg 31%
    19:00 -3°C° 0 mm 2 mps 768 mmHg 30%
    20:00 -3°C° 0 mm 2 mps 768 mmHg 29%
    21:00 -3°C° 0 mm 2 mps 768 mmHg 28%
    22:00 -3°C° 0 mm 2 mps 768 mmHg 27%
    23:00 -1°C° 0 mm 1 mps 768 mmHg 26%

    Tomorrow, 17 November, Saturday

    Time Temperature Precipitation Wind Pressure Humidity
    00:00 -1°C° 0 mm 1 mps 767 mmHg 25%
    01:00 -1°C° 0 mm 1 mps 767 mmHg 25%
    02:00 -1°C° 0 mm 1 mps 767 mmHg 24%
    03:00 -1°C° 0 mm 1 mps 767 mmHg 24%
    04:00 -2°C° 0 mm 1 mps 767 mmHg 24%
    05:00 -2°C° 0 mm 1 mps 766 mmHg 23%
    06:00 -1°C° 0 mm 1 mps 766 mmHg 23%
    07:00 -1°C° 0 mm 1 mps 766 mmHg 23%
    08:00 -1°C° 0 mm 1 mps 766 mmHg 23%
    09:00 0°C° 0 mm 1 mps 765 mmHg 22%
    10:00 +1°C° 0 mm 1 mps 765 mmHg 21%
    11:00 +2°C° 0 mm 1 mps 765 mmHg 20%
    12:00 +2°C° 0 mm 1 mps 764 mmHg 21%
    13:00 +1°C° 0 mm 2 mps 763 mmHg 23%
    14:00 +1°C° 0 mm 2 mps 762 mmHg 25%
    15:00 -1°C° 0 mm 2 mps 762 mmHg 26%
    16:00 -1°C° 0 mm 2 mps 761 mmHg 27%
    17:00 -2°C° 0 mm 3 mps 761 mmHg 29%
    18:00 -2°C° 0 mm 3 mps 760 mmHg 30%
    19:00 -2°C° 0 mm 3 mps 760 mmHg 31%
    20:00 -2°C° 0 mm 3 mps 759 mmHg 33%
    21:00 -2°C° 0 mm 3 mps 758 mmHg 35%
    22:00 -3°C° 0 mm 4 mps 757 mmHg 36%
    23:00 -3°C° 0 mm 4 mps 757 mmHg 38%

    Day after tomorrow, 18 November, Sunday

    Time Temperature Precipitation Wind Pressure Humidity
    00:00 -3°C° 0 mm 4 mps 756 mmHg 41%
    01:00 -3°C° 0 mm 4 mps 755 mmHg 44%
    02:00 -2°C° 0 mm 4 mps 755 mmHg 47%
    03:00 -3°C° 0 mm 4 mps 754 mmHg 51%
    04:00 -3°C° 0 mm 4 mps 753 mmHg 55%
    05:00 -3°C° 0 mm 4 mps 752 mmHg 60%
    06:00 -3°C° 0.1 mm 4 mps 751 mmHg 66%
    07:00 -3°C° 0.1 mm 4 mps 751 mmHg 72%
    08:00 -3°C° 0.1 mm 4 mps 751 mmHg 78%
    09:00 -2°C° 0.1 mm 3 mps 750 mmHg 80%
    10:00 -1°C° 0.1 mm 3 mps 750 mmHg 82%
    11:00 -1°C° 0.1 mm 3 mps 750 mmHg 83%
    12:00 -1°C° 0 mm 3 mps 750 mmHg 83%
    13:00 -1°C° 0 mm 3 mps 749 mmHg 84%
    14:00 -1°C° 0 mm 2 mps 749 mmHg 84%
    15:00 -1°C° 0 mm 2 mps 749 mmHg 86%
    16:00 -1°C° 0 mm 2 mps 749 mmHg 88%
    17:00 -1°C° 0 mm 2 mps 749 mmHg 90%
    18:00 -1°C° 0 mm 2 mps 749 mmHg 90%
    19:00 -1°C° 0 mm 2 mps 749 mmHg 91%
    20:00 +1°C° 0 mm 1 mps 749 mmHg 91%
    21:00 0°C° 0 mm 1 mps 749 mmHg 92%
    22:00 0°C° 0 mm 1 mps 750 mmHg 93%
    23:00 0°C° 0 mm 1 mps 750 mmHg 94%

    19 November, Monday

    Time Temperature Precipitation Wind Pressure Humidity
    00:00 0°C° 0 mm 1 mps 750 mmHg 94%
    01:00 0°C° 0 mm 1 mps 750 mmHg 94%
    02:00 -1°C° 0 mm 1 mps 751 mmHg 95%
    03:00 0°C° 0.1 mm 1 mps 751 mmHg 94%
    04:00 0°C° 0.1 mm 1 mps 751 mmHg 94%
    05:00 0°C° 0.1 mm 1 mps 751 mmHg 93%
    06:00 0°C° 0.1 mm 1 mps 752 mmHg 93%
    07:00 0°C° 0.1 mm 1 mps 752 mmHg 93%
    08:00 -2°C° 0.1 mm 2 mps 753 mmHg 93%
    09:00 -1°C° 0.1 mm 2 mps 753 mmHg 89%
    10:00 -1°C° 0.1 mm 2 mps 753 mmHg 86%
    11:00 -1°C° 0.1 mm 2 mps 754 mmHg 83%
    12:00 -1°C° 0.1 mm 2 mps 754 mmHg 81%
    13:00 -1°C° 0.1 mm 2 mps 754 mmHg 78%
    14:00 -1°C° 0.1 mm 2 mps 755 mmHg 76%
    15:00 -1°C° 0 mm 2 mps 755 mmHg 76%
    16:00 -2°C° 0 mm 2 mps 755 mmHg 76%
    17:00 -3°C° 0 mm 2 mps 755 mmHg 76%
    18:00 -3°C° 0 mm 2 mps 755 mmHg 73%
    19:00 -4°C° 0 mm 3 mps 755 mmHg 70%
    20:00 -4°C° 0 mm 3 mps 756 mmHg 68%
    21:00 -4°C° 0 mm 3 mps 756 mmHg 67%
    22:00 -4°C° 0 mm 3 mps 756 mmHg 66%
    23:00 -4°C° 0 mm 3 mps 757 mmHg 66%

    20 November, Tuesday

    Time Temperature Precipitation Wind Pressure Humidity
    00:00 -4°C° 0 mm 3 mps 757 mmHg 67%
    01:00 -2°C° 0 mm 3 mps 757 mmHg 69%
    02:00 -2°C° 0 mm 3 mps 757 mmHg 71%
    03:00 -2°C° 0.1 mm 3 mps 757 mmHg 76%
    04:00 -4°C° 0.1 mm 4 mps 756 mmHg 80%
    05:00 -4°C° 0.1 mm 4 mps 756 mmHg 84%
    06:00 -3°C° 0.1 mm 4 mps 756 mmHg 85%
    07:00 -3°C° 0.1 mm 4 mps 756 mmHg 85%
    08:00 -3°C° 0.1 mm 4 mps 756 mmHg 85%
    09:00 -3°C° 0.1 mm 4 mps 756 mmHg 85%
    10:00 -3°C° 0.1 mm 4 mps 755 mmHg 84%
    11:00 -2°C° 0.1 mm 4 mps 755 mmHg 84%
    12:00 -2°C° 0.3 mm 4 mps 755 mmHg 85%
    13:00 -2°C° 0.3 mm 4 mps 755 mmHg 87%
    14:00 -2°C° 0.3 mm 4 mps 754 mmHg 89%
    15:00 -1°C° 0.2 mm 3 mps 754 mmHg 89%
    16:00 -1°C° 0.2 mm 3 mps 754 mmHg 90%
    17:00 -1°C° 0.2 mm 3 mps 754 mmHg 91%
    18:00 -1°C° 0.1 mm 3 mps 753 mmHg 91%
    19:00 -1°C° 0.1 mm 3 mps 753 mmHg 91%
    20:00 -1°C° 0.1 mm 2 mps 753 mmHg 92%
    21:00 -2°C° 0 mm 2 mps 753 mmHg 92%
    22:00 -2°C° 0 mm 2 mps 753 mmHg 93%
    23:00 -2°C° 0 mm 2 mps 753 mmHg 94%

    21 November, Wednesday

    Time Temperature Precipitation Wind Pressure Humidity
    00:00 -2°C° 0 mm 2 mps 753 mmHg 94%
    01:00 -2°C° 0 mm 2 mps 753 mmHg 94%
    02:00 -2°C° 0 mm 2 mps 753 mmHg 94%
    03:00 -2°C° 0 mm 2 mps 753 mmHg 94%
    04:00 -2°C° 0 mm 2 mps 753 mmHg 93%
    05:00 -2°C° 0 mm 2 mps 753 mmHg 93%
    06:00 -2°C° 0 mm 2 mps 753 mmHg 92%
    07:00 -2°C° 0 mm 3 mps 753 mmHg 92%
    08:00 -2°C° 0 mm 3 mps 753 mmHg 91%
    09:00 -2°C° 0 mm 3 mps 753 mmHg 90%
    10:00 -2°C° 0 mm 3 mps 753 mmHg 88%
    11:00 -1°C° 0 mm 3 mps 753 mmHg 86%
    12:00 -2°C° 0 mm 4 mps 753 mmHg 86%
    13:00 -2°C° 0 mm 4 mps 753 mmHg 86%
    14:00 -3°C° 0 mm 4 mps 753 mmHg 86%
    15:00 -3°C° 0 mm 4 mps 753 mmHg 87%
    16:00 -3°C° 0 mm 4 mps 753 mmHg 87%
    17:00 -3°C° 0 mm 4 mps 753 mmHg 88%
    18:00 -3°C° 0 mm 4 mps 753 mmHg 88%
    19:00 -4°C° 0 mm 4 mps 753 mmHg 88%
    20:00 -4°C° 0 mm 4 mps 753 mmHg 88%
    21:00 -4°C° 0 mm 4 mps 753 mmHg 87%
    22:00 -5°C° 0 mm 5 mps 753 mmHg 87%
    23:00 -5°C° 0 mm 5 mps 753 mmHg 86%
    Show more